Showing default

CHUANG XIN 20A (CX-20A), 58425

Orbit data source: Space-Track

CHUANG XIN 20A (CX-20A), 58425 is a payload satellite owned by Zhongguo Xingwang (CN) in LEO that was launched on Thu, 23 Nov 2023 UTC via a CHANG ZHENG 2D/YZ-3 launch vehicle from the Xichang Space Center, China (XSC). Payload-class satellites include a variety of spacecraft equipped with specific instruments for various scientific and technological missions. These include communications satellites like Starlink; space stations such as the ISS; scientific satellites like the Hubble; Earth observation satellites from companies like Planet Labs, Umbra, and HawkEye 360; GPS; miniature CubeSats for education and research; and military/defense satellites.

Loading next visibility...
Identifier
58425, 2023-181A
Orbit
LEO
Country
Flag of CNCN / PRC
Related business
Manufacturer
SAST
Mission
Operational Civil Communications
Bus & Motor
Unknown
Mass
~300 kg wet, ~300 kg dry
Launch date (UTC)
2023-11-23 (3 years ago)
Launch vehicle
CHANG ZHENG 2D/YZ-3
Launch site
Xichang Space Center, China (XSC)
Object type
Payload
Rocket body
Debris
Shape & HBR
Box + 2 Pan, 1.3 m
Radar Cross Section
2.320 m², Large (>1 m²)

Expand to show TLE details & history
Last TLE update: 22 hours ago

TLE from 22 hours ago
0 CHUANG XIN 20A (CX-20A)
1 58425U 23181A   26172.52965448 -.00000094  00000-0  61398-4 0  9995
2 58425  49.9602 310.7971 0013002 279.1129  80.8277 13.41497539126334
Epoch: 2026-06-21T12:42Z
TLE epoch observation values (Epoch: 2026-06-21T12:42:42.147Z)
Latitude
0.00002°
Longitude
-149.6071°
Altitude
1,102.673 km
Speed
7.303 km/s
True Right ascension
20h 43m 11s
True Declination
0° 00' 00"
Sunlit
Object was in full shadow at epoch
Visualization orbit readout
Latitude
Unknown
Longitude
Unknown
Altitude
Unknown
Speed
Unknown
Apparent Right ascension
Unknown
Apparent Declination
Unknown
Sunlit
N/A
Visualization observer readout
Local Sidereal Time
21:28:38
Azimuth
Unknown
Elevation
Unknown
Doppler factor
Unknown
Orbital elements
Apogee altitude
1,114.15 km
Perigee altitude
1,094.693 km
Semi-major axis
7,482.559 km
Eccentricity
0.0013
Inclination
49.9602°
RAAN
310.7971°
Arg. of periapsis
279.1129°
True anomaly
80.97482°
Mean anomaly
80.8277°
Eccentric anomaly
80.90126°
Mean motion
3.35327 °/min
Orbital period
107.36 mins
BSTAR
0.000061398
Loading maneuver chart data...
Computing Atmospheric mass density...
Loading historical data...
Loading historical data...
Loading historical data...
Loading historical data...
Loading historical data...
Loading historical data...
Loading historical data...
Other satellites on launch #181 in the year 2023 (2023-11-23 UTC)

Documentation

Showing up to 5 results
|